SCP
0 -0 -0 -0 -0 -0 -0 -0 -0 -0 -0 -0 -0 -0 -0 -0 -0 -0 -0 -0 -0 -0 -0 0 0 0 0 0 -0 0 -0 0 0 -0 0 0 0 0 0 0 0 0 0 -0 -0 0 0
0 0 -0 -0 -0 -0 -0 -0 -0 -0 -0 -0 -0 -0 -0 -0 -0 -0 -0 -0 -0 -0 -0 0 0 0 0 0 0 -0 0 0 -0 0 0 0 0 0 0 0 0 0 -0 -0 0 0 0
-0 0 -0 0 0 -0 -0 -0 -0 -0 -0 -0 -0 -0 -0 -0 -0 -0 -0 -0 -0 -0 -0 0 0 0 0 0 0 0 0 0 -0 0 -0 0 0 0 0 0 0 0 0 0 0 0 0
0 0 0 0 0 0 0 -0 -0 -0 -0 -0 -0 -0 -0 -0 -0 -0 -0 -0 -0 -0 0 0 0 0 -0 0 0 0 -0 0 0 0 0 0 0 0 0 0 0 0 0 0 0 0 0
0 0 0 0 0 -0 -0 -0 -0 -0 -0 -0 -0 -0 -0 -0 -0 -0 -0 -0 0 0 0 0 0 0 0 0 0 -0 0 0 0 0 0 0 0 0 0 0 0 0 0 -0 0 0 0
0 0 0 0 0 0 -0 -0 -0 -0 -0 -0 -0 -0 -0 -0 -0 0 -0 0 0 0 0 0 0 0 -0 0 0 0 0 0 -0 0 0 0 0 0 0 0 0 -0 -0 0 0 0 0
0 0 0 0 0 0 0 0 0 0 -0 -0 -0 -0 -0 -0 -0 0 0 0 0 0 0 0 0 0 0 0 0 0 0 -0 -0 0 0 0 0 0 0 0 0 0 0 0 0 0 0
0 0 0 0 0 0 0 0 0 0 0 0 0 -0 -0 -0 -0 -0 0 0 0 0 0 0 -0 -0 -0 0 0 0 -0 0 0 -0 0 0 0 0 0 0 0 0 0 0 0 0 0
0 0 0 0 0 0 0 0 0 0 0 0 0 0 0 -0 -0 0 0 0 0 0 0 -0 0 0 0 0 0 0 0 0 0 0 0 0 -0 0 0 -0 0 0 0 0 0 -0 0
0 0 0 0 0 0 0 0 0 0 0 0 0 0 0 -0 0 0 0 0 0 0 0 0 0 0 -0 -0 0 0 0 0 0 -0 0 0 -0 0 0 0 0 0 0 0 0 -0 -0
0 0 0 0 0 0 0 0 0 0 0 0 0 0 0 0 0 0 0 0 0 0 0 0 0 0 0 -0 0 0 -0 0 0 0 0 -0 -0 0 0 0 0 0 0 0 0 0 0
0 0 0 0 0 0 0 0 0 0 0 0 0 0 0 0 0 0 0 0 0 0 0 0 0 0 0 0 0 -0 0 0 0 0 0 0 0 -0 0 0 0 -0 0 0 0 0 0
0 0 0 0 0 0 0 0 0 0 0 0 0 0 0 0 0 0 0 0 0 0 0 0 0 0 0 0 0 -0 0 0 0 0 0 0 0 0 0 0 0 0 0 0 0 0 0
0 0 0 0 0 0 0 0 0 0 0 0 0 -0 0 0 0 0 0 0 0 0 0 0 0 0 0 0 0 0 0 0 0 0 0 0 0 -0 0 0 0 0 0 0 0 0 0
0 0 0 0 0 0 0 0 0 0 0 0 -0 0 0 0 0 0 0 0 0 0 0 0 0 0 0 0 0 0 -0 0 0 0 0 0 0 -0 0 0 0 0 0 0 0 0 0
0 0 0 0 0 0 0 0 0 0 0 0 0 0 0 -0 0 0 0 0 0 0 0 0 0 0 0 0 0 0 0 0 0 0 0 0 0 -0 0 0 0 0 0 0 0 0 0
0 0 0 0 0 0 0 0 0 0 0 0 0 0 0 0 0 0 0 0 0 0 0 0 0 0 0 0 0 0 0 0 0 0 0 0 0 0 -0 0 0 0 0 0 0 0 0
0 0 0 0 0 0 0 0 0 0 0 0 0 0 0 0 0 0 0 0 0 0 0 0 0 0 0 0 0 0 0 0 0 0 0 0 0 0 0 0 0 0 0 0 0 0 0
0 0 0 0 0 0 0 0 0 0 0 0 0 0 0 0 0 0 0 0 0 0 0 0 0 0 0 0 0 0 0 0 0 0 0 0 0 0 0 0 0 0 0 0 0 0 0
0 0 0 0 0 0 0 0 0 0 0 0 0 0 0 0 0 0 0 0 0 0 0 0 0 0 0 0 0 0 0 0 0 0 0 0 0 0 0 0 0 0 0 0 0 0 0
0 0 0 0 0 0 0 0 0 0 0 0 0 0 0 0 0 0 0 0 0 0 0 0 0 0 0 0 0 0 0 0 0 0 0 0 0 0 0 0 0 0 0 0 0 0 0
0 0 0 0 0 0 0 0 0 0 0 0 0 0 0 0 0 0 0 0 0 0 0 0 0 0 0 0 0 0 0 0 0 0 0 0 0 0 0 0 0 0 0 0 0 0 0
0 0 0 0 0 0 0 0 0 0 0 0 0 0 0 0 0 0 0 0 0 0 0 0 0 0 0 0 0 0 0 0 0 0 0 0 0 0 0 0 0 0 0 0 0 0 0
0 0 0 0 0 0 0 0 0 0 0 0 0 0 0 0 0 0 0 0 0 0 0 0 0 0 0 0 0 0 0 0 0 0 0 0 0 0 0 0 0 0 0 0 0 0 0
0 0 0 0 0 0 0 0 0 0 0 0 0 0 0 0 0 0 0 0 0 0 0 0 0 0 0 0 0 0 0 0 0 0 0 0 0 0 0 0 0 0 0 0 0 0 0
0 0 0 0 0 0 0 0 0 0 0 0 0 0 0 0 0 0 0 0 0 0 0 0 0 0 0 0 0 0 0 0 0 0 0 0 0 0 0 0 0 0 0 0 0 0 0
0 0 0 0 0 0 0 0 0 0 0 0 0 0 0 0 0 0 0 0 0 0 0 0 0 0 0 0 0 0 0 0 0 0 0 0 0 0 0 0 0 0 0 0 0 0 0
0 0 0 0 0 0 0 0 0 0 0 0 0 0 0 0 0 0 0 0 0 0 0 0 0 0 0 0 0 0 0 0 0 0 0 0 0 0 0 0 0 0 0 0 0 0 0
0 0 0 0 0 0 0 0 0 0 0 0 0 0 0 0 0 0 0 0 0 0 0 0 0 0 0 0 0 0 0 0 0 0 0 0 0 0 0 0 0 0 0 0 0 0 0
Wind_Speed_500mb
31 33 35 37 38 39 40 40 40 40 38 37 38 37 37 36 33 30 26 22 20 15 12 11 10 12 13 11 26 10 8 11 14 19 18 18 27 31 17 20 43 20 19 38 25 26 22
33 35 38 39 40 40 40 40 39 39 39 38 37 37 37 37 35 32 26 20 17 14 13 11 12 13 13 13 4 12 8 16 19 18 12 21 36 31 44 32 15 41 24 31 10 18 13
36 38 40 42 42 41 40 40 41 40 40 39 38 37 37 37 36 34 26 19 14 10 10 11 12 14 21 34 16 6 20 19 15 7 22 33 32 21 36 21 29 30 7 2 12 12 11
36 38 40 41 42 43 43 42 42 42 42 42 40 38 37 37 37 34 27 17 13 10 11 11 11 13 21 19 24 28 11 18 15 21 23 23 27 24 24 39 34 16 7 6 17 6 6
37 39 39 40 41 42 43 43 43 43 44 43 43 42 39 37 38 34 23 15 12 10 11 12 12 11 23 9 32 42 21 27 24 16 18 16 21 18 33 12 14 5 5 14 19 28 14
39 40 40 39 39 40 41 42 43 44 46 46 45 44 40 37 36 33 17 14 14 14 12 15 16 15 28 33 32 28 34 28 27 22 22 21 12 7 11 2 11 14 16 17 18 17 19
41 41 41 40 40 41 42 43 44 45 47 48 48 47 42 36 31 27 10 10 13 1 20 23 19 27 33 10 33 29 32 30 31 13 11 28 6 13 24 23 24 22 14 20 17 19 25
44 43 43 43 43 44 45 45 46 47 48 49 49 49 44 35 23 10 16 13 13 17 22 38 55 60 64 29 26 27 34 34 27 12 19 11 19 26 26 25 21 21 19 18 18 14 16
47 47 47 47 46 47 49 50 49 49 49 49 48 48 45 35 13 7 16 23 17 29 13 33 58 62 57 37 32 30 30 43 15 17 20 18 25 27 32 22 18 17 6 12 13 19 4
49 50 48 48 47 47 47 49 49 49 50 49 47 44 43 40 9 15 7 15 14 25 6 15 20 48 61 53 27 38 42 35 19 21 22 17 33 30 15 5 12 13 16 11 19 15 5
50 51 49 48 48 48 50 51 50 49 49 48 46 40 38 31 29 16 15 27 21 5 6 10 23 14 36 63 5 46 44 48 24 24 14 20 20 16 11 4 10 16 3 10 12 12 12
55 53 53 50 49 48 49 51 52 51 50 49 46 37 41 20 30 3 19 30 12 0 13 6 14 10 18 41 51 28 45 42 33 22 25 17 46 9 8 11 16 15 6 15 13 7 8
57 55 55 54 54 53 50 50 50 50 51 53 48 37 35 33 16 6 14 12 0 8 15 13 18 17 18 19 27 27 27 16 14 9 11 15 28 17 10 4 17 9 13 7 9 5 11
54 53 54 54 54 54 55 52 51 52 50 52 50 36 29 32 18 10 12 6 8 19 21 16 9 25 25 20 25 28 17 19 16 16 9 16 15 24 15 18 19 11 16 11 9 5 11
56 56 54 53 52 52 54 54 52 52 48 48 46 30 33 22 10 13 12 7 12 10 13 17 5 8 14 21 17 23 23 20 18 23 17 7 16 15 20 14 21 11 4 20 12 8 6
53 54 54 54 53 52 55 54 52 49 41 37 43 36 19 24 19 19 7 10 13 26 34 28 9 6 11 18 12 27 22 24 27 29 33 18 13 17 22 23 14 14 9 5 1 5 9
48 49 50 48 48 49 50 49 46 44 32 26 26 17 12 34 29 18 9 12 18 47 45 13 6 16 22 23 30 7 24 4 18 29 25 21 13 13 12 5 14 1 5 7 9 10 10
43 44 41 39 38 41 40 38 35 37 29 17 11 7 34 26 11 15 14 13 19 42 57 9 2 12 17 22 19 13 10 12 20 13 8 1 7 11 19 15 6 15 7 10 10 13 3
35 35 32 32 34 37 33 28 25 26 29 20 7 17 26 30 7 13 23 32 49 39 21 11 8 12 16 13 11 15 24 3 8 10 7 5 8 3 16 15 13 12 6 10 9 4 7
32 31 28 28 31 33 29 25 19 18 21 15 9 7 17 31 32 15 9 16 21 30 4 19 12 10 14 14 13 9 12 11 19 13 17 10 5 7 11 12 6 8 12 17 14 6 8
27 26 26 27 29 26 26 23 17 16 16 10 7 11 20 5 15 19 16 15 24 16 18 3 12 18 13 9 13 12 11 15 19 24 7 10 4 2 11 16 19 10 10 15 13 19 19
28 28 26 26 28 28 26 24 16 16 14 14 10 13 25 31 28 16 12 10 19 23 9 11 13 17 15 9 12 10 13 14 5 6 9 3 5 2 9 16 18 25 23 11 18 14 12
28 29 28 26 28 30 24 21 17 15 10 6 12 21 15 16 14 12 11 13 14 18 25 29 9 4 7 11 27 25 18 20 15 11 5 6 6 4 7 11 15 15 14 15 6 10 17
28 28 24 25 26 26 23 21 18 13 14 18 7 24 13 9 10 13 25 24 22 16 6 19 19 4 13 14 10 5 11 11 19 19 8 4 4 1 4 8 11 15 17 20 17 6 14
30 27 22 22 24 25 23 21 19 13 17 22 15 9 12 9 23 29 33 17 29 19 5 9 23 24 12 10 7 4 2 6 5 15 16 13 7 3 5 7 18 24 9 8 9 7 7
25 26 21 21 22 23 25 23 15 14 17 18 14 4 11 13 7 37 33 35 12 3 10 12 11 8 15 6 2 6 6 1 8 8 21 14 12 10 3 6 7 7 11 13 3 5 22
21 23 22 19 18 22 21 17 13 12 15 16 9 3 8 13 18 37 13 11 18 13 4 9 15 11 16 4 2 7 10 9 11 15 6 5 6 17 10 9 8 6 9 9 5 5 17
21 20 22 17 17 17 12 13 10 9 12 16 10 6 11 13 34 20 19 25 27 27 7 17 10 9 6 5 5 6 7 11 9 11 13 10 1 4 4 7 14 19 12 4 7 21 15
21 21 10 14 15 15 13 10 8 7 9 10 8 6 10 23 22 16 15 17 4 8 8 11 7 27 18 3 3 5 7 6 10 13 8 7 8 10 12 9 9 17 26 16 25 25 25
Wind_Direction_500mb
1 360 359 358 357 356 355 354 352 351 351 349 348 347 347 344 339 333 329 328 330 315 301 282 270 279 281 262 253 230 277 192 188 189 204 234 270 248 252 246 259 246 255 273 291 311 331
354 353 352 350 350 350 351 351 350 349 348 347 346 345 345 342 338 332 324 318 323 315 299 290 281 279 276 256 234 209 245 179 180 196 255 273 269 276 262 265 257 260 238 264 283 289 283
348 347 346 346 347 347 347 348 349 346 345 345 344 342 341 340 336 332 322 310 310 304 305 301 294 275 262 234 200 281 211 188 172 229 280 303 331 300 314 321 309 293 318 242 291 259 274
343 342 342 343 344 344 344 344 345 345 343 343 342 340 338 338 334 331 320 305 296 281 280 290 295 280 262 233 227 228 186 214 242 261 276 299 320 325 306 300 310 293 351 318 263 204 309
339 340 340 341 341 341 342 342 341 341 340 340 340 339 337 335 333 331 318 299 283 274 261 270 283 259 268 244 211 214 206 217 229 237 260 280 315 295 297 317 321 291 245 254 272 190 182
336 338 338 338 338 338 339 339 340 339 338 338 338 337 336 335 333 329 318 295 275 263 259 264 237 284 253 213 205 217 212 219 240 223 231 238 241 228 305 327 246 240 220 244 232 224 191
331 332 332 335 336 336 336 336 337 337 337 336 336 335 334 333 332 326 329 326 326 227 227 225 224 215 293 217 206 202 207 214 242 245 224 241 196 229 234 242 243 268 275 273 284 231 171
326 328 329 329 331 332 332 332 333 333 333 333 334 333 332 331 332 348 355 354 19 323 293 266 263 254 260 264 184 200 198 208 216 251 243 278 232 231 235 246 245 260 266 286 303 342 134
326 326 326 326 327 327 327 326 328 329 330 330 331 332 330 330 319 335 332 322 306 334 281 278 241 234 241 249 210 205 215 203 199 226 252 217 250 236 234 254 285 257 263 304 292 313 21
319 318 320 321 322 322 321 322 323 325 326 326 327 330 329 330 304 304 7 344 354 321 305 260 207 235 228 237 222 220 210 222 212 240 231 238 259 262 266 273 318 326 295 346 311 300 215
313 313 315 316 317 318 318 319 320 320 321 321 321 325 318 328 310 306 13 343 322 324 324 173 174 196 193 207 179 210 217 207 220 224 225 247 262 273 269 182 288 249 343 354 2 9 50
311 310 310 311 312 313 314 315 316 317 317 317 314 317 307 306 294 300 351 327 312 300 248 231 122 162 181 201 214 243 207 220 217 256 274 262 285 280 250 195 227 252 80 21 2 43 7
306 307 307 308 309 310 310 310 312 313 314 312 308 308 289 282 218 347 339 328 329 229 278 184 162 180 201 202 201 220 197 190 189 211 269 292 277 271 237 326 320 254 78 12 346 345 233
302 302 303 304 306 308 308 308 311 312 313 310 305 306 279 261 253 217 338 335 242 238 245 311 239 193 182 211 194 213 195 202 202 232 256 213 281 231 212 175 203 244 138 139 232 241 256
297 300 301 302 303 304 304 306 309 311 313 312 309 307 278 240 141 142 259 221 214 231 318 2 233 266 297 201 166 198 222 186 207 198 220 284 272 319 312 157 156 264 193 200 190 278 314
293 294 295 298 301 301 301 305 307 308 313 316 319 324 295 144 188 189 212 249 252 280 306 313 317 295 271 278 227 187 199 198 215 213 186 233 260 284 314 132 175 171 210 25 355 180 248
293 292 294 295 297 299 301 305 308 308 312 306 319 324 128 147 179 191 218 230 254 265 264 297 324 314 310 309 321 256 210 206 224 218 189 200 161 283 357 259 169 37 298 273 144 139 190
301 295 296 295 299 300 303 308 310 311 309 302 300 268 174 179 172 211 229 242 245 277 290 179 36 288 296 308 314 310 91 41 18 37 38 193 175 202 233 268 102 80 121 71 88 336 355
304 306 304 304 307 309 308 309 310 311 323 339 314 278 205 182 223 235 256 245 249 265 272 168 184 260 277 290 324 353 85 336 53 57 71 331 335 64 338 340 19 65 100 86 113 91 77
303 301 310 311 319 314 315 316 303 300 308 321 313 281 203 202 233 283 312 293 283 267 285 313 332 254 276 302 287 306 331 167 143 121 131 93 102 108 191 244 147 208 179 138 111 87 279
304 305 304 308 316 318 318 320 308 291 291 304 234 259 338 239 231 233 218 278 302 302 162 247 343 311 268 314 288 282 257 286 129 156 119 104 154 343 303 306 314 298 212 172 163 200 204
293 297 300 303 308 312 308 313 308 294 278 263 279 346 332 305 315 307 301 237 261 287 311 206 192 251 285 283 270 305 18 10 264 232 129 108 181 295 303 305 309 305 308 281 191 209 227
285 290 298 293 301 305 304 303 306 295 277 247 306 303 320 292 315 317 260 288 292 280 301 282 341 143 345 12 6 360 25 13 0 31 45 110 105 48 269 315 321 292 274 281 186 178 211
274 281 292 295 307 305 307 284 293 282 271 248 298 342 295 295 290 284 298 282 261 297 281 0 81 260 41 13 334 285 288 353 337 322 322 51 75 5 267 334 273 245 262 284 277 237 97
267 270 278 290 298 311 310 300 284 271 263 255 250 337 314 296 315 302 310 318 294 323 21 5 68 86 64 28 11 321 227 343 257 269 275 184 178 230 185 229 289 310 12 41 41 11 83
269 265 265 281 288 294 297 301 285 273 261 252 211 292 278 314 232 335 316 303 274 164 341 301 280 95 66 23 333 213 216 257 216 225 215 204 174 162 217 233 249 190 87 65 38 299 16
263 266 257 275 284 297 290 285 289 271 254 237 197 56 278 271 289 336 345 327 342 3 341 342 312 113 116 77 272 232 238 194 233 268 226 215 216 208 213 219 270 64 98 142 162 246 350
268 268 242 261 291 308 303 294 286 276 252 220 188 170 257 279 296 351 3 7 0 20 19 344 347 24 102 139 205 227 243 238 272 246 169 164 155 292 252 236 260 39 76 103 166 60 45
262 269 230 262 289 304 298 296 289 264 240 196 188 181 267 260 265 315 301 288 299 355 15 332 352 23 16 320 343 292 254 298 249 258 176 215 154 182 167 199 180 99 119 120 110 102 95
Wind_Speed_850mb
31 33 35 37 38 39 40 40 40 40 38 37 38 37 37 36 33 30 26 22 20 15 12 11 10 12 13 11 26 10 8 11 14 19 18 18 27 31 17 20 43 20 19 38 25 26 22
33 35 38 39 40 40 40 40 39 39 39 38 37 37 37 37 35 32 26 20 17 14 13 11 12 13 13 13 4 12 8 16 19 18 12 21 36 31 44 32 15 41 24 31 10 18 13
36 38 40 42 42 41 40 40 41 40 40 39 38 37 37 37 36 34 26 19 14 10 10 11 12 14 21 34 16 6 20 19 15 7 22 33 32 21 36 21 29 30 7 2 12 12 11
36 38 40 41 42 43 43 42 42 42 42 42 40 38 37 37 37 34 27 17 13 10 11 11 11 13 21 19 24 28 11 18 15 21 23 23 27 24 24 39 34 16 7 6 17 6 6
37 39 39 40 41 42 43 43 43 43 44 43 43 42 39 37 38 34 23 15 12 10 11 12 12 11 23 9 32 42 21 27 24 16 18 16 21 18 33 12 14 5 5 14 19 28 14
39 40 40 39 39 40 41 42 43 44 46 46 45 44 40 37 36 33 17 14 14 14 12 15 16 15 28 33 32 28 34 28 27 22 22 21 12 7 11 2 11 14 16 17 18 17 19
41 41 41 40 40 41 42 43 44 45 47 48 48 47 42 36 31 27 10 10 13 1 20 23 19 27 33 10 33 29 32 30 31 13 11 28 6 13 24 23 24 22 14 20 17 19 25
44 43 43 43 43 44 45 45 46 47 48 49 49 49 44 35 23 10 16 13 13 17 22 38 55 60 64 29 26 27 34 34 27 12 19 11 19 26 26 25 21 21 19 18 18 14 16
47 47 47 47 46 47 49 50 49 49 49 49 48 48 45 35 13 7 16 23 17 29 13 33 58 62 57 37 32 30 30 43 15 17 20 18 25 27 32 22 18 17 6 12 13 19 4
49 50 48 48 47 47 47 49 49 49 50 49 47 44 43 40 9 15 7 15 14 25 6 15 20 48 61 53 27 38 42 35 19 21 22 17 33 30 15 5 12 13 16 11 19 15 5
50 51 49 48 48 48 50 51 50 49 49 48 46 40 38 31 29 16 15 27 21 5 6 10 23 14 36 63 5 46 44 48 24 24 14 20 20 16 11 4 10 16 3 10 12 12 12
55 53 53 50 49 48 49 51 52 51 50 49 46 37 41 20 30 3 19 30 12 0 13 6 14 10 18 41 51 28 45 42 33 22 25 17 46 9 8 11 16 15 6 15 13 7 8
57 55 55 54 54 53 50 50 50 50 51 53 48 37 35 33 16 6 14 12 0 8 15 13 18 17 18 19 27 27 27 16 14 9 11 15 28 17 10 4 17 9 13 7 9 5 11
54 53 54 54 54 54 55 52 51 52 50 52 50 36 29 32 18 10 12 6 8 19 21 16 9 25 25 20 25 28 17 19 16 16 9 16 15 24 15 18 19 11 16 11 9 5 11
56 56 54 53 52 52 54 54 52 52 48 48 46 30 33 22 10 13 12 7 12 10 13 17 5 8 14 21 17 23 23 20 18 23 17 7 16 15 20 14 21 11 4 20 12 8 6
53 54 54 54 53 52 55 54 52 49 41 37 43 36 19 24 19 19 7 10 13 26 34 28 9 6 11 18 12 27 22 24 27 29 33 18 13 17 22 23 14 14 9 5 1 5 9
48 49 50 48 48 49 50 49 46 44 32 26 26 17 12 34 29 18 9 12 18 47 45 13 6 16 22 23 30 7 24 4 18 29 25 21 13 13 12 5 14 1 5 7 9 10 10
43 44 41 39 38 41 40 38 35 37 29 17 11 7 34 26 11 15 14 13 19 42 57 9 2 12 17 22 19 13 10 12 20 13 8 1 7 11 19 15 6 15 7 10 10 13 3
35 35 32 32 34 37 33 28 25 26 29 20 7 17 26 30 7 13 23 32 49 39 21 11 8 12 16 13 11 15 24 3 8 10 7 5 8 3 16 15 13 12 6 10 9 4 7
32 31 28 28 31 33 29 25 19 18 21 15 9 7 17 31 32 15 9 16 21 30 4 19 12 10 14 14 13 9 12 11 19 13 17 10 5 7 11 12 6 8 12 17 14 6 8
27 26 26 27 29 26 26 23 17 16 16 10 7 11 20 5 15 19 16 15 24 16 18 3 12 18 13 9 13 12 11 15 19 24 7 10 4 2 11 16 19 10 10 15 13 19 19
28 28 26 26 28 28 26 24 16 16 14 14 10 13 25 31 28 16 12 10 19 23 9 11 13 17 15 9 12 10 13 14 5 6 9 3 5 2 9 16 18 25 23 11 18 14 12
28 29 28 26 28 30 24 21 17 15 10 6 12 21 15 16 14 12 11 13 14 18 25 29 9 4 7 11 27 25 18 20 15 11 5 6 6 4 7 11 15 15 14 15 6 10 17
28 28 24 25 26 26 23 21 18 13 14 18 7 24 13 9 10 13 25 24 22 16 6 19 19 4 13 14 10 5 11 11 19 19 8 4 4 1 4 8 11 15 17 20 17 6 14
30 27 22 22 24 25 23 21 19 13 17 22 15 9 12 9 23 29 33 17 29 19 5 9 23 24 12 10 7 4 2 6 5 15 16 13 7 3 5 7 18 24 9 8 9 7 7
25 26 21 21 22 23 25 23 15 14 17 18 14 4 11 13 7 37 33 35 12 3 10 12 11 8 15 6 2 6 6 1 8 8 21 14 12 10 3 6 7 7 11 13 3 5 22
21 23 22 19 18 22 21 17 13 12 15 16 9 3 8 13 18 37 13 11 18 13 4 9 15 11 16 4 2 7 10 9 11 15 6 5 6 17 10 9 8 6 9 9 5 5 17
21 20 22 17 17 17 12 13 10 9 12 16 10 6 11 13 34 20 19 25 27 27 7 17 10 9 6 5 5 6 7 11 9 11 13 10 1 4 4 7 14 19 12 4 7 21 15
21 21 10 14 15 15 13 10 8 7 9 10 8 6 10 23 22 16 15 17 4 8 8 11 7 27 18 3 3 5 7 6 10 13 8 7 8 10 12 9 9 17 26 16 25 25 25
Wind_Direction_850mb
1 360 359 358 357 356 355 354 352 351 351 349 348 347 347 344 339 333 329 328 330 315 301 282 270 279 281 262 253 230 277 192 188 189 204 234 270 248 252 246 259 246 255 273 291 311 331
354 353 352 350 350 350 351 351 350 349 348 347 346 345 345 342 338 332 324 318 323 315 299 290 281 279 276 256 234 209 245 179 180 196 255 273 269 276 262 265 257 260 238 264 283 289 283
348 347 346 346 347 347 347 348 349 346 345 345 344 342 341 340 336 332 322 310 310 304 305 301 294 275 262 234 200 281 211 188 172 229 280 303 331 300 314 321 309 293 318 242 291 259 274
343 342 342 343 344 344 344 344 345 345 343 343 342 340 338 338 334 331 320 305 296 281 280 290 295 280 262 233 227 228 186 214 242 261 276 299 320 325 306 300 310 293 351 318 263 204 309
339 340 340 341 341 341 342 342 341 341 340 340 340 339 337 335 333 331 318 299 283 274 261 270 283 259 268 244 211 214 206 217 229 237 260 280 315 295 297 317 321 291 245 254 272 190 182
336 338 338 338 338 338 339 339 340 339 338 338 338 337 336 335 333 329 318 295 275 263 259 264 237 284 253 213 205 217 212 219 240 223 231 238 241 228 305 327 246 240 220 244 232 224 191
331 332 332 335 336 336 336 336 337 337 337 336 336 335 334 333 332 326 329 326 326 227 227 225 224 215 293 217 206 202 207 214 242 245 224 241 196 229 234 242 243 268 275 273 284 231 171
326 328 329 329 331 332 332 332 333 333 333 333 334 333 332 331 332 348 355 354 19 323 293 266 263 254 260 264 184 200 198 208 216 251 243 278 232 231 235 246 245 260 266 286 303 342 134
326 326 326 326 327 327 327 326 328 329 330 330 331 332 330 330 319 335 332 322 306 334 281 278 241 234 241 249 210 205 215 203 199 226 252 217 250 236 234 254 285 257 263 304 292 313 21
319 318 320 321 322 322 321 322 323 325 326 326 327 330 329 330 304 304 7 344 354 321 305 260 207 235 228 237 222 220 210 222 212 240 231 238 259 262 266 273 318 326 295 346 311 300 215
313 313 315 316 317 318 318 319 320 320 321 321 321 325 318 328 310 306 13 343 322 324 324 173 174 196 193 207 179 210 217 207 220 224 225 247 262 273 269 182 288 249 343 354 2 9 50
311 310 310 311 312 313 314 315 316 317 317 317 314 317 307 306 294 300 351 327 312 300 248 231 122 162 181 201 214 243 207 220 217 256 274 262 285 280 250 195 227 252 80 21 2 43 7
306 307 307 308 309 310 310 310 312 313 314 312 308 308 289 282 218 347 339 328 329 229 278 184 162 180 201 202 201 220 197 190 189 211 269 292 277 271 237 326 320 254 78 12 346 345 233
302 302 303 304 306 308 308 308 311 312 313 310 305 306 279 261 253 217 338 335 242 238 245 311 239 193 182 211 194 213 195 202 202 232 256 213 281 231 212 175 203 244 138 139 232 241 256
297 300 301 302 303 304 304 306 309 311 313 312 309 307 278 240 141 142 259 221 214 231 318 2 233 266 297 201 166 198 222 186 207 198 220 284 272 319 312 157 156 264 193 200 190 278 314
293 294 295 298 301 301 301 305 307 308 313 316 319 324 295 144 188 189 212 249 252 280 306 313 317 295 271 278 227 187 199 198 215 213 186 233 260 284 314 132 175 171 210 25 355 180 248
293 292 294 295 297 299 301 305 308 308 312 306 319 324 128 147 179 191 218 230 254 265 264 297 324 314 310 309 321 256 210 206 224 218 189 200 161 283 357 259 169 37 298 273 144 139 190
301 295 296 295 299 300 303 308 310 311 309 302 300 268 174 179 172 211 229 242 245 277 290 179 36 288 296 308 314 310 91 41 18 37 38 193 175 202 233 268 102 80 121 71 88 336 355
304 306 304 304 307 309 308 309 310 311 323 339 314 278 205 182 223 235 256 245 249 265 272 168 184 260 277 290 324 353 85 336 53 57 71 331 335 64 338 340 19 65 100 86 113 91 77
303 301 310 311 319 314 315 316 303 300 308 321 313 281 203 202 233 283 312 293 283 267 285 313 332 254 276 302 287 306 331 167 143 121 131 93 102 108 191 244 147 208 179 138 111 87 279
304 305 304 308 316 318 318 320 308 291 291 304 234 259 338 239 231 233 218 278 302 302 162 247 343 311 268 314 288 282 257 286 129 156 119 104 154 343 303 306 314 298 212 172 163 200 204
293 297 300 303 308 312 308 313 308 294 278 263 279 346 332 305 315 307 301 237 261 287 311 206 192 251 285 283 270 305 18 10 264 232 129 108 181 295 303 305 309 305 308 281 191 209 227
285 290 298 293 301 305 304 303 306 295 277 247 306 303 320 292 315 317 260 288 292 280 301 282 341 143 345 12 6 360 25 13 0 31 45 110 105 48 269 315 321 292 274 281 186 178 211
274 281 292 295 307 305 307 284 293 282 271 248 298 342 295 295 290 284 298 282 261 297 281 0 81 260 41 13 334 285 288 353 337 322 322 51 75 5 267 334 273 245 262 284 277 237 97
267 270 278 290 298 311 310 300 284 271 263 255 250 337 314 296 315 302 310 318 294 323 21 5 68 86 64 28 11 321 227 343 257 269 275 184 178 230 185 229 289 310 12 41 41 11 83
269 265 265 281 288 294 297 301 285 273 261 252 211 292 278 314 232 335 316 303 274 164 341 301 280 95 66 23 333 213 216 257 216 225 215 204 174 162 217 233 249 190 87 65 38 299 16
263 266 257 275 284 297 290 285 289 271 254 237 197 56 278 271 289 336 345 327 342 3 341 342 312 113 116 77 272 232 238 194 233 268 226 215 216 208 213 219 270 64 98 142 162 246 350
268 268 242 261 291 308 303 294 286 276 252 220 188 170 257 279 296 351 3 7 0 20 19 344 347 24 102 139 205 227 243 238 272 246 169 164 155 292 252 236 260 39 76 103 166 60 45
262 269 230 262 289 304 298 296 289 264 240 196 188 181 267 260 265 315 301 288 299 355 15 332 352 23 16 320 343 292 254 298 249 258 176 215 154 182 167 199 180 99 119 120 110 102 95